K2AS-13 Weather Reports


time (UTC)temp
C
wind
direction
speed
KPH
gust
KPH
rain 1hr
cm
rain 24hr
cm
rain mn
cm
humidity
%
barometer
mb
20260505051016 18 203 11.3 19.3 0.00 0.00 0.00 59 1000.4
20260505041016 18 203 6.4 11.3 0.00 0.00 0.00 55 1000.9
20260505040016 18 203 6.4 12.9 0.00 0.00 0.00 52 1000.9
20260505035017 19 203 9.7 25.7 0.00 0.00 0.00 51 1001.1
20260505034037 19 225 9.7 24.1 0.00 0.00 0.00 48 1001.0
20260505033017 18 0.0 12.9 0.00 0.00 0.00 51 1000.9
20260505032017 17 0.0 0.0 0.00 0.00 0.00 56 1000.8
20260505031037 16 0.0 0.0 0.00 0.00 0.00 62 1000.8
20260505030017 14 0.0 0.0 0.00 0.00 0.00 72 1000.8
20260505025017 13 0.0 0.0 0.00 0.00 0.00 74 1000.8
20260505024017 13 0.0 0.0 0.00 0.00 0.00 77 1000.6
20260505023037 13 0.0 0.0 0.00 0.00 0.00 77 1000.9
20260505022017 12 0.0 0.0 0.00 0.00 0.00 77 1000.9
20260505021017 13 0.0 0.0 0.00 0.00 0.00 76 1001.0
20260505020017 13 0.0 0.0 0.00 0.00 0.00 76 1001.1
20260505015037 13 0.0 0.0 0.00 0.00 0.00 74 1001.3
20260505014017 14 0.0 0.0 0.00 0.00 0.00 75 1001.3
20260505013017 14 0.0 0.0 0.00 0.00 0.00 73 1001.1
20260505012017 15 0.0 0.0 0.00 0.00 0.00 70 1001.1
20260505011017 15 0.0 0.0 0.00 0.00 0.00 70 1001.0
20260505010017 15 0.0 0.0 0.00 0.00 0.00 67 1000.8
20260505005037 16 0.0 0.0 0.00 0.00 0.00 61 1000.9
20260505004017 17 0.0 0.0 0.00 0.00 0.00 58 1000.9
20260505003017 18 0.0 0.0 0.00 0.00 0.00 52 1000.9
20260505002017 19 0.0 0.0 0.00 0.03 0.00 45 1001.0
20260505001017 20 0.0 0.0 0.00 0.03 0.00 41 1000.9
20260505000017 21 0.0 0.0 0.00 0.03 0.00 39 1001.0
20260504235017 21 0.0 0.0 0.00 0.03 0.00 38 1000.8
20260504234017 21 0.0 0.0 0.00 0.03 0.00 38 1000.8
20260504233017 23 0.0 0.0 0.00 0.03 0.00 38 1000.9
20260504232017 23 0.0 0.0 0.00 0.03 0.00 33 1000.8
20260504231017 23 225 1.6 11.3 0.00 0.03 0.00 36 1000.7
20260504230017 23 0.0 0.0 0.00 0.03 0.00 36 1000.7
20260504225037 23 203 1.6 9.7 0.00 0.03 0.00 34 1000.7
20260504224017 24 203 1.6 12.9 0.00 0.03 0.00 33 1000.6
20260504223017 24 203 6.4 16.1 0.00 0.03 0.00 32 1000.6
20260504222017 24 203 8.0 24.1 0.00 0.03 0.00 31 1000.6
20260504221017 24 225 1.6 9.7 0.00 0.03 0.00 32 1000.7
20260504220017 24 225 1.6 17.7 0.00 0.03 0.00 33 1000.8
20260504215017 24 225 8.0 17.7 0.00 0.03 0.00 33 1000.8
20260504214017 24 203 8.0 22.5 0.00 0.03 0.00 33 1000.9
20260504213017 23 225 8.0 22.5 0.00 0.03 0.00 33 1000.9
20260504212037 23 225 1.6 11.3 0.00 0.03 0.00 38 1000.9
20260504211017 24 203 11.3 25.7 0.00 0.03 0.00 33 1001.0
20260504210037 23 203 8.0 16.1 0.00 0.03 0.00 38 1001.2
20260504205017 23 203 8.0 22.5 0.00 0.03 0.00 35 1001.2
20260504204017 24 225 11.3 24.1 0.00 0.03 0.00 34 1001.4
20260504203017 24 225 11.3 22.5 0.00 0.03 0.00 34 1001.4
20260504202017 24 225 6.4 19.3 0.00 0.03 0.00 35 1001.5
20260504201017 23 203 8.0 16.1 0.00 0.03 0.00 34 1001.6
20260504200016 24 225 6.4 20.9 0.00 0.03 0.00 36 1001.7
20260504195016 23 225 11.3 37.0 0.00 0.03 0.00 34 1001.9
20260504194017 23 225 11.3 20.9 0.00 0.03 0.00 37 1002.1
20260504193017 23 225 8.0 17.7 0.00 0.03 0.00 35 1002.2
20260504192017 23 203 9.7 20.9 0.00 0.03 0.00 37 1002.4
20260504191017 23 225 8.0 20.9 0.00 0.03 0.00 36 1002.6
20260504190017 22 203 8.0 19.3 0.00 0.03 0.00 40 1002.6
20260504185017 23 225 8.0 25.7 0.00 0.03 0.00 40 1002.7
20260504184016 22 248 8.0 20.9 0.00 0.03 0.00 43 1002.8
20260504183017 22 225 9.7 25.7 0.00 0.03 0.00 40 1002.9
20260504182017 22 225 8.0 22.5 0.00 0.03 0.00 42 1003.0
20260504181017 22 248 12.9 24.1 0.00 0.03 0.00 42 1003.1
20260504180017 22 225 9.7 24.1 0.00 0.03 0.00 43 1003.2
20260504175017 22 248 12.9 24.1 0.00 0.03 0.00 45 1003.3
20260504174016 22 225 11.3 33.8 0.00 0.03 0.00 45 1003.3
20260504173017 21 248 11.3 24.1 0.00 0.03 0.00 44 1003.4
20260504172017 21 248 6.4 16.1 0.00 0.03 0.00 45 1003.5
20260504171017 21 225 9.7 20.9 0.00 0.03 0.00 49 1003.6
20260504151016 18 225 9.7 20.9 0.00 0.03 0.00 53 1004.4
20260504141017 17 203 9.7 20.9 0.00 0.03 0.00 50 1004.4
20260504081016 11 203 9.7 19.3 0.00 0.03 0.00 59 1005.5